Time,TemperatureF,DewpointF,PressureIn,WindDirection,WindDirectionDegrees,WindSpeedMPH,WindSpeedGustMPH,Humidity,HourlyPrecipIn,Conditions,Clouds,dailyrainin,SoftwareType,DateUTC
2013-09-15 00:01:00,55.2,49.2,30.10,SW,234,0.0,0.0,80,0.00,,BKN200,0.00,VWS V14.01,2013-09-15 04:01:00,
2013-09-15 00:02:00,55.2,49.2,30.10,SW,234,0.0,0.0,80,0.00,,BKN200,0.00,VWS V14.01,2013-09-15 04:02:00,
2013-09-15 00:04:00,55.2,49.2,30.10,SW,234,0.0,0.0,80,0.00,,BKN200,0.00,VWS V14.01,2013-09-15 04:04:00,
2013-09-15 00:05:00,55.1,49.0,30.10,SW,234,0.0,0.0,80,0.00,,BKN200,0.00,VWS V14.01,2013-09-15 04:05:00,
2013-09-15 00:10:00,55.0,49.3,30.11,SW,234,0.0,0.0,81,0.00,,BKN200,0.00,VWS V14.01,2013-09-15 04:10:00,
2013-09-15 00:15:00,54.9,49.2,30.11,SW,234,0.0,0.0,81,0.00,,BKN200,0.00,VWS V14.01,2013-09-15 04:15:00,
2013-09-15 00:20:00,54.8,49.1,30.11,SW,234,0.0,0.0,81,0.00,,BKN200,0.00,VWS V14.01,2013-09-15 04:20:00,
2013-09-15 00:25:00,54.6,48.9,30.11,SW,234,0.0,0.0,81,0.00,,BKN200,0.00,VWS V14.01,2013-09-15 04:25:00,
2013-09-15 00:30:00,54.5,49.1,30.11,SW,234,0.0,0.0,82,0.00,,BKN200,0.00,VWS V14.01,2013-09-15 04:30:00,
2013-09-15 00:35:00,54.3,48.9,30.11,SW,234,0.0,0.0,82,0.00,,SCT200,0.00,VWS V14.01,2013-09-15 04:35:00,
2013-09-15 00:40:00,54.2,49.2,30.11,SW,234,0.0,0.0,83,0.00,,SCT200,0.00,VWS V14.01,2013-09-15 04:40:00,
2013-09-15 00:45:00,54.0,49.0,30.11,SW,234,0.0,0.0,83,0.00,,SCT200,0.00,VWS V14.01,2013-09-15 04:45:00,
2013-09-15 00:50:00,53.8,48.8,30.11,SW,234,0.0,0.0,83,0.00,,SCT200,0.00,VWS V14.01,2013-09-15 04:50:00,
2013-09-15 00:55:00,53.7,49.0,30.11,SW,234,0.0,0.0,84,0.00,,SCT200,0.00,VWS V14.01,2013-09-15 04:55:00,
2013-09-15 01:00:00,53.5,48.8,30.11,SW,234,0.0,0.0,84,0.00,,SCT200,0.00,VWS V14.01,2013-09-15 05:00:00,
2013-09-15 01:05:00,53.3,48.6,30.11,SW,234,0.0,0.0,84,0.00,,SCT200,0.00,VWS V14.01,2013-09-15 05:05:00,
2013-09-15 01:10:00,53.2,48.5,30.11,SW,234,0.0,0.0,84,0.00,,SCT200,0.00,VWS V14.01,2013-09-15 05:10:00,
2013-09-15 01:15:00,53.0,48.6,30.11,SW,234,0.0,0.0,85,0.00,,SCT200,0.00,VWS V14.01,2013-09-15 05:15:00,
2013-09-15 01:20:00,52.9,48.5,30.10,SW,234,0.0,0.0,85,0.00,,SCT200,0.00,VWS V14.01,2013-09-15 05:20:00,
2013-09-15 01:25:00,52.8,48.4,30.11,SW,234,0.0,0.0,85,0.00,,SCT200,0.00,VWS V14.01,2013-09-15 05:25:00,
2013-09-15 01:31:00,52.7,48.6,30.11,SW,234,0.0,0.0,86,0.00,,SCT200,0.00,VWS V14.01,2013-09-15 05:31:00,
2013-09-15 01:36:00,52.6,48.5,30.10,SW,234,0.0,0.0,86,0.00,,CLR,0.00,VWS V14.01,2013-09-15 05:36:00,
2013-09-15 01:41:00,52.5,48.4,30.10,SW,234,0.0,0.0,86,0.00,,CLR,0.00,VWS V14.01,2013-09-15 05:41:00,
2013-09-15 01:46:00,52.5,48.8,30.11,SW,234,0.0,0.0,87,0.00,,CLR,0.00,VWS V14.01,2013-09-15 05:46:00,
2013-09-15 01:51:00,52.4,48.7,30.10,SW,234,0.0,0.0,87,0.00,,CLR,0.00,VWS V14.01,2013-09-15 05:51:00,
2013-09-15 01:56:00,52.4,48.7,30.10,SW,234,0.0,0.0,87,0.00,,CLR,0.00,VWS V14.01,2013-09-15 05:56:00,
2013-09-15 02:01:00,52.4,48.7,30.10,SW,234,0.0,0.0,87,0.00,,CLR,0.00,VWS V14.01,2013-09-15 06:01:00,
2013-09-15 02:06:00,52.3,48.5,30.10,SW,234,0.0,0.0,87,0.00,,CLR,0.00,VWS V14.01,2013-09-15 06:06:00,
2013-09-15 02:11:00,52.2,48.5,30.10,SW,234,0.0,0.0,87,0.00,,CLR,0.00,VWS V14.01,2013-09-15 06:11:00,
2013-09-15 02:16:00,52.1,48.4,30.10,SW,234,0.0,0.0,87,0.00,,CLR,0.00,VWS V14.01,2013-09-15 06:16:00,
2013-09-15 02:21:00,52.1,48.7,30.10,SW,234,0.0,0.0,88,0.00,,CLR,0.00,VWS V14.01,2013-09-15 06:21:00,
2013-09-15 02:26:00,52.0,48.3,30.10,SW,234,0.0,0.0,87,0.00,,CLR,0.00,VWS V14.01,2013-09-15 06:26:00,
2013-09-15 02:31:00,51.9,48.5,30.10,SW,234,0.0,0.0,88,0.00,,CLR,0.00,VWS V14.01,2013-09-15 06:31:00,
2013-09-15 02:36:00,51.8,48.4,30.10,SW,234,0.0,0.0,88,0.00,,CLR,0.00,VWS V14.01,2013-09-15 06:36:00,
2013-09-15 02:41:00,51.7,48.3,30.10,SW,234,0.0,0.0,88,0.00,,CLR,0.00,VWS V14.01,2013-09-15 06:41:00,
2013-09-15 02:46:00,51.6,48.2,30.10,SW,234,0.0,0.0,88,0.00,,CLR,0.00,VWS V14.01,2013-09-15 06:46:00,
2013-09-15 02:51:00,51.5,48.1,30.09,SW,234,0.0,0.0,88,0.00,,CLR,0.00,VWS V14.01,2013-09-15 06:51:00,
2013-09-15 02:56:00,51.4,48.0,30.09,SW,234,0.0,0.0,88,0.00,,CLR,0.00,VWS V14.01,2013-09-15 06:56:00,
2013-09-15 03:01:00,51.2,47.8,30.10,SW,234,0.0,0.0,88,0.00,,CLR,0.00,VWS V14.01,2013-09-15 07:01:00,
2013-09-15 03:06:00,51.1,47.7,30.09,SW,234,0.0,0.0,88,0.00,,CLR,0.00,VWS V14.01,2013-09-15 07:06:00,
2013-09-15 03:11:00,51.0,47.6,30.10,SW,234,0.0,0.0,88,0.00,,CLR,0.00,VWS V14.01,2013-09-15 07:11:00,
2013-09-15 03:17:00,50.9,47.8,30.09,SW,234,0.0,0.0,89,0.00,,CLR,0.00,VWS V14.01,2013-09-15 07:17:00,
2013-09-15 03:22:00,50.9,47.8,30.10,SW,234,0.0,0.0,89,0.00,,CLR,0.00,VWS V14.01,2013-09-15 07:22:00,
2013-09-15 03:27:00,50.9,47.8,30.09,SW,234,0.0,0.0,89,0.00,,CLR,0.00,VWS V14.01,2013-09-15 07:27:00,
2013-09-15 03:32:00,50.8,48.0,30.09,SW,234,0.0,0.0,90,0.00,,CLR,0.00,VWS V14.01,2013-09-15 07:32:00,
2013-09-15 03:37:00,50.8,48.0,30.09,SW,234,0.0,0.0,90,0.00,,CLR,0.00,VWS V14.01,2013-09-15 07:37:00,
2013-09-15 03:42:00,50.7,47.9,30.09,SW,234,0.0,0.0,90,0.00,,CLR,0.00,VWS V14.01,2013-09-15 07:42:00,
2013-09-15 03:47:00,50.6,47.8,30.09,SW,234,0.0,0.0,90,0.00,,CLR,0.00,VWS V14.01,2013-09-15 07:47:00,
2013-09-15 03:52:00,50.6,47.8,30.09,SW,234,0.0,0.0,90,0.00,,CLR,0.00,VWS V14.01,2013-09-15 07:52:00,
2013-09-15 03:57:00,50.5,47.7,30.09,SW,234,0.0,0.0,90,0.00,,CLR,0.00,VWS V14.01,2013-09-15 07:57:00,
2013-09-15 04:02:00,50.5,47.7,30.09,SW,234,0.0,0.0,90,0.00,,CLR,0.00,VWS V14.01,2013-09-15 08:02:00,
2013-09-15 04:07:00,50.4,47.6,30.09,SW,234,0.0,0.0,90,0.00,,CLR,0.00,VWS V14.01,2013-09-15 08:07:00,
2013-09-15 04:12:00,50.4,47.9,30.10,SW,234,0.0,0.0,91,0.00,,CLR,0.00,VWS V14.01,2013-09-15 08:12:00,
2013-09-15 04:17:00,50.3,47.8,30.10,SW,234,0.0,0.0,91,0.00,,CLR,0.00,VWS V14.01,2013-09-15 08:17:00,
2013-09-15 04:22:00,50.4,47.9,30.10,SW,234,0.0,0.0,91,0.00,,CLR,0.00,VWS V14.01,2013-09-15 08:22:00,
2013-09-15 04:27:00,50.6,48.4,30.10,SW,234,0.0,0.0,92,0.00,,CLR,0.00,VWS V14.01,2013-09-15 08:27:00,
2013-09-15 04:32:00,50.9,48.7,30.10,SW,234,0.0,0.0,92,0.00,,CLR,0.00,VWS V14.01,2013-09-15 08:32:00,
2013-09-15 04:37:00,51.0,48.8,30.10,SW,234,0.0,2.0,92,0.00,,CLR,0.00,VWS V14.01,2013-09-15 08:37:00,
2013-09-15 04:42:00,51.2,48.7,30.10,SW,234,0.0,0.0,91,0.00,,CLR,0.00,VWS V14.01,2013-09-15 08:42:00,
2013-09-15 04:47:00,51.2,48.7,30.10,SW,234,0.0,0.0,91,0.00,,CLR,0.00,VWS V14.01,2013-09-15 08:47:00,
2013-09-15 04:52:00,51.2,48.7,30.10,SW,234,0.0,0.0,91,0.00,,CLR,0.00,VWS V14.01,2013-09-15 08:52:00,
2013-09-15 04:57:00,51.4,48.9,30.10,SW,234,0.0,0.0,91,0.00,,CLR,0.00,VWS V14.01,2013-09-15 08:57:00,
2013-09-15 05:02:00,51.5,49.0,30.10,SW,234,0.0,0.0,91,0.00,,CLR,0.00,VWS V14.01,2013-09-15 09:02:00,
2013-09-15 05:07:00,51.5,48.7,30.10,SW,234,0.0,0.0,90,0.00,,CLR,0.00,VWS V14.01,2013-09-15 09:07:00,
2013-09-15 05:12:00,51.4,48.6,30.10,SW,234,0.0,0.0,90,0.00,,CLR,0.00,VWS V14.01,2013-09-15 09:12:00,
2013-09-15 05:17:00,51.4,48.6,30.10,SW,234,0.0,0.0,90,0.00,,CLR,0.00,VWS V14.01,2013-09-15 09:17:00,
2013-09-15 05:22:00,51.3,48.5,30.10,SW,234,0.0,0.0,90,0.00,,CLR,0.00,VWS V14.01,2013-09-15 09:22:00,
2013-09-15 05:27:00,51.2,48.4,30.10,SW,234,0.0,0.0,90,0.00,,CLR,0.00,VWS V14.01,2013-09-15 09:27:00,
2013-09-15 05:33:00,51.2,48.4,30.10,SW,234,0.0,0.0,90,0.00,,CLR,0.00,VWS V14.01,2013-09-15 09:33:00,
2013-09-15 05:38:00,51.2,48.7,30.11,SW,234,0.0,0.0,91,0.00,,CLR,0.00,VWS V14.01,2013-09-15 09:38:00,
2013-09-15 05:43:00,51.1,48.6,30.11,SW,234,0.0,0.0,91,0.00,,CLR,0.00,VWS V14.01,2013-09-15 09:43:00,
2013-09-15 05:48:00,51.2,48.7,30.11,SW,234,0.0,0.0,91,0.00,,CLR,0.00,VWS V14.01,2013-09-15 09:48:00,
2013-09-15 05:53:00,51.2,48.7,30.11,SW,234,0.0,0.0,91,0.00,,CLR,0.00,VWS V14.01,2013-09-15 09:53:00,
2013-09-15 05:58:00,51.2,48.7,30.11,SW,234,0.0,0.0,91,0.00,,CLR,0.00,VWS V14.01,2013-09-15 09:58:00,
2013-09-15 06:03:00,51.2,48.7,30.11,SW,234,0.0,0.0,91,0.00,,CLR,0.00,VWS V14.01,2013-09-15 10:03:00,
2013-09-15 06:08:00,51.1,48.6,30.11,SW,234,0.0,0.0,91,0.00,,CLR,0.00,VWS V14.01,2013-09-15 10:08:00,
2013-09-15 06:13:00,51.0,48.5,30.11,SW,234,0.0,0.0,91,0.00,,CLR,0.00,VWS V14.01,2013-09-15 10:13:00,
2013-09-15 06:18:00,50.9,48.1,30.11,SW,234,0.0,0.0,90,0.00,,CLR,0.00,VWS V14.01,2013-09-15 10:18:00,
2013-09-15 06:23:00,50.8,48.3,30.12,SW,234,0.0,0.0,91,0.00,,CLR,0.00,VWS V14.01,2013-09-15 10:23:00,
2013-09-15 06:28:00,50.7,48.2,30.12,SW,234,0.0,0.0,91,0.00,,CLR,0.00,VWS V14.01,2013-09-15 10:28:00,
2013-09-15 06:33:00,50.6,48.1,30.12,SW,234,0.0,0.0,91,0.00,,CLR,0.00,VWS V14.01,2013-09-15 10:33:00,
2013-09-15 06:38:00,50.4,47.9,30.12,SW,234,0.0,0.0,91,0.00,,BKN200,0.00,VWS V14.01,2013-09-15 10:38:00,
2013-09-15 06:43:00,50.3,47.8,30.12,SW,234,0.0,0.0,91,0.00,,BKN200,0.00,VWS V14.01,2013-09-15 10:43:00,
2013-09-15 06:48:00,50.2,47.7,30.12,SW,234,0.0,0.0,91,0.00,,BKN200,0.00,VWS V14.01,2013-09-15 10:48:00,
2013-09-15 06:53:00,50.1,47.6,30.12,SW,234,0.0,0.0,91,0.00,,BKN200,0.00,VWS V14.01,2013-09-15 10:53:00,
2013-09-15 06:58:00,50.0,47.5,30.12,SW,234,0.0,0.0,91,0.00,,BKN200,0.00,VWS V14.01,2013-09-15 10:58:00,
2013-09-15 07:03:00,50.1,47.9,30.12,SW,234,0.0,0.0,92,0.00,,BKN200,0.00,VWS V14.01,2013-09-15 11:03:00,
2013-09-15 07:08:00,50.1,47.9,30.12,SW,234,0.0,0.0,92,0.00,,BKN200,0.00,VWS V14.01,2013-09-15 11:08:00,
2013-09-15 07:13:00,50.1,47.9,30.13,SW,234,0.0,0.0,92,0.00,,BKN200,0.00,VWS V14.01,2013-09-15 11:13:00,
2013-09-15 07:18:00,50.2,48.0,30.13,SW,234,0.0,0.0,92,0.00,,BKN200,0.00,VWS V14.01,2013-09-15 11:18:00,
2013-09-15 07:23:00,50.2,48.0,30.12,SW,234,0.0,0.0,92,0.00,,BKN200,0.00,VWS V14.01,2013-09-15 11:23:00,
2013-09-15 07:29:00,50.3,48.1,30.13,SW,234,0.0,0.0,92,0.00,,BKN200,0.00,VWS V14.01,2013-09-15 11:29:00,
2013-09-15 07:34:00,50.4,48.2,30.13,SW,234,0.0,0.0,92,0.00,,BKN200,0.00,VWS V14.01,2013-09-15 11:34:00,
2013-09-15 07:39:00,50.5,48.3,30.13,SW,234,0.0,0.0,92,0.00,,BKN200,0.00,VWS V14.01,2013-09-15 11:39:00,
2013-09-15 07:44:00,50.7,48.5,30.13,SW,234,0.0,0.0,92,0.00,,BKN200,0.00,VWS V14.01,2013-09-15 11:44:00,
2013-09-15 07:49:00,50.8,48.6,30.13,SW,234,0.0,0.0,92,0.00,,BKN200,0.00,VWS V14.01,2013-09-15 11:49:00,
2013-09-15 07:54:00,51.0,48.8,30.13,SW,234,0.0,0.0,92,0.00,,BKN200,0.00,VWS V14.01,2013-09-15 11:54:00,
2013-09-15 07:59:00,51.1,48.6,30.13,SW,234,0.0,0.0,91,0.00,,BKN200,0.00,VWS V14.01,2013-09-15 11:59:00,
2013-09-15 08:04:00,51.2,48.7,30.13,SW,234,0.0,0.0,91,0.00,,BKN200,0.00,VWS V14.01,2013-09-15 12:04:00,
2013-09-15 08:09:00,51.4,48.9,30.13,SW,234,0.0,0.0,91,0.00,,BKN200,0.00,VWS V14.01,2013-09-15 12:09:00,
2013-09-15 08:14:00,51.5,48.7,30.13,SW,234,0.0,0.0,90,0.00,,BKN200,0.00,VWS V14.01,2013-09-15 12:14:00,
2013-09-15 08:19:00,51.6,48.8,30.12,SW,234,0.0,1.0,90,0.00,,BKN200,0.00,VWS V14.01,2013-09-15 12:19:00,
2013-09-15 08:24:00,51.7,48.6,30.12,SW,233,0.0,2.0,89,0.00,,BKN200,0.00,VWS V14.01,2013-09-15 12:24:00,
2013-09-15 08:29:00,51.8,48.4,30.12,SW,234,1.0,3.0,88,0.00,,BKN200,0.00,VWS V14.01,2013-09-15 12:29:00,
2013-09-15 08:34:00,51.8,48.4,30.13,SW,234,1.0,1.0,88,0.00,,BKN200,0.00,VWS V14.01,2013-09-15 12:34:00,
2013-09-15 08:39:00,52.0,48.3,30.12,SW,234,0.0,0.0,87,0.00,,BKN200,0.00,VWS V14.01,2013-09-15 12:39:00,
2013-09-15 08:44:00,52.2,48.5,30.12,SW,234,0.0,1.0,87,0.00,,BKN200,0.00,VWS V14.01,2013-09-15 12:44:00,
2013-09-15 08:49:00,52.4,48.3,30.12,SW,234,0.0,2.0,86,0.00,,BKN200,0.00,VWS V14.01,2013-09-15 12:49:00,
2013-09-15 08:54:00,52.6,48.5,30.12,SW,234,0.0,1.0,86,0.00,,BKN200,0.00,VWS V14.01,2013-09-15 12:54:00,
2013-09-15 08:59:00,52.8,48.4,30.12,SW,234,3.0,3.0,85,0.00,,BKN200,0.00,VWS V14.01,2013-09-15 12:59:00,
2013-09-15 09:04:00,53.0,48.3,30.11,SW,234,1.0,3.0,84,0.00,,BKN200,0.00,VWS V14.01,2013-09-15 13:04:00,
2013-09-15 09:09:00,53.2,48.2,30.12,SW,234,0.0,3.0,83,0.00,,BKN200,0.00,VWS V14.01,2013-09-15 13:09:00,
2013-09-15 09:14:00,53.5,48.5,30.12,SW,234,0.0,1.0,83,0.00,,BKN200,0.00,VWS V14.01,2013-09-15 13:14:00,
2013-09-15 09:19:00,53.8,48.4,30.11,SW,234,0.0,3.0,82,0.00,,BKN200,0.00,VWS V14.01,2013-09-15 13:19:00,
2013-09-15 09:24:00,54.1,48.7,30.11,SW,234,0.0,1.0,82,0.00,,BKN200,0.00,VWS V14.01,2013-09-15 13:24:00,
2013-09-15 09:29:00,54.3,48.3,30.12,SW,219,3.0,6.0,80,0.00,,BKN200,0.00,VWS V14.01,2013-09-15 13:29:00,
2013-09-15 09:35:00,54.5,48.5,30.11,SW,219,0.0,3.0,80,0.00,,BKN200,0.00,VWS V14.01,2013-09-15 13:35:00,
2013-09-15 09:40:00,54.6,48.2,30.12,SW,219,0.0,2.0,79,0.00,,OVC200,0.00,VWS V14.01,2013-09-15 13:40:00,
2013-09-15 09:45:00,54.8,48.4,30.11,SW,219,0.0,3.0,79,0.00,,OVC200,0.00,VWS V14.01,2013-09-15 13:45:00,
2013-09-15 09:50:00,55.0,48.6,30.11,SW,219,0.0,0.0,79,0.00,,OVC200,0.00,VWS V14.01,2013-09-15 13:50:00,
2013-09-15 09:55:00,55.2,48.5,30.11,SW,219,0.0,3.0,78,0.00,,OVC200,0.00,VWS V14.01,2013-09-15 13:55:00,
2013-09-15 10:00:00,55.3,48.9,30.10,SW,219,0.0,0.0,79,0.00,,OVC200,0.00,VWS V14.01,2013-09-15 14:00:00,
2013-09-15 10:05:00,55.5,48.8,30.10,SW,219,1.0,3.0,78,0.00,,OVC200,0.00,VWS V14.01,2013-09-15 14:05:00,
2013-09-15 10:10:00,55.5,48.4,30.10,SW,219,0.0,1.0,77,0.00,,OVC200,0.00,VWS V14.01,2013-09-15 14:10:00,
2013-09-15 10:15:00,55.6,48.9,30.09,SW,219,0.0,1.0,78,0.00,,OVC200,0.00,VWS V14.01,2013-09-15 14:15:00,
2013-09-15 10:20:00,55.8,48.7,30.09,SW,219,1.0,1.0,77,0.00,,OVC200,0.00,VWS V14.01,2013-09-15 14:20:00,
2013-09-15 10:25:00,56.0,48.9,30.10,SW,219,2.0,3.0,77,0.00,,OVC200,0.00,VWS V14.01,2013-09-15 14:25:00,
2013-09-15 10:30:00,56.2,49.1,30.10,SW,219,0.0,3.0,77,0.00,,OVC200,0.00,VWS V14.01,2013-09-15 14:30:00,
2013-09-15 10:35:00,56.4,49.3,30.10,SW,219,0.0,1.0,77,0.00,,OVC140,0.00,VWS V14.01,2013-09-15 14:35:00,
2013-09-15 10:40:00,56.7,49.2,30.10,SW,219,1.0,1.0,76,0.00,,OVC140,0.00,VWS V14.01,2013-09-15 14:40:00,
2013-09-15 10:45:00,56.9,49.1,30.10,SW,219,0.0,2.0,75,0.00,,OVC140,0.00,VWS V14.01,2013-09-15 14:45:00,
2013-09-15 10:50:00,57.3,49.5,30.10,SW,219,0.0,0.0,75,0.00,,OVC140,0.00,VWS V14.01,2013-09-15 14:50:00,
2013-09-15 10:55:00,57.6,49.4,30.10,SW,219,1.0,1.0,74,0.00,,OVC140,0.00,VWS V14.01,2013-09-15 14:55:00,
2013-09-15 11:00:00,57.8,49.2,30.10,SW,219,0.0,4.0,73,0.00,,OVC140,0.00,VWS V14.01,2013-09-15 15:00:00,
2013-09-15 11:05:00,58.0,49.4,30.10,SW,219,0.0,1.0,73,0.00,,OVC140,0.00,VWS V14.01,2013-09-15 15:05:00,
2013-09-15 11:10:00,58.2,49.2,30.10,SW,219,0.0,0.0,72,0.00,,OVC140,0.00,VWS V14.01,2013-09-15 15:10:00,
2013-09-15 11:15:00,58.4,49.4,30.10,SW,219,0.0,0.0,72,0.00,,OVC140,0.00,VWS V14.01,2013-09-15 15:15:00,
2013-09-15 11:21:00,58.6,49.6,30.10,SW,219,0.0,0.0,72,0.00,,OVC140,0.00,VWS V14.01,2013-09-15 15:21:00,
2013-09-15 11:26:00,59.0,49.6,30.10,SW,219,0.0,0.0,71,0.00,,OVC140,0.00,VWS V14.01,2013-09-15 15:26:00,
2013-09-15 11:31:00,59.3,49.1,30.10,SW,235,0.0,3.0,69,0.00,,OVC140,0.00,VWS V14.01,2013-09-15 15:31:00,
2013-09-15 11:36:00,59.6,49.4,30.10,SW,229,0.0,2.0,69,0.00,,OVC180,0.00,VWS V14.01,2013-09-15 15:36:00,
2013-09-15 11:41:00,60.2,49.6,30.10,SW,229,1.0,1.0,68,0.00,,OVC180,0.00,VWS V14.01,2013-09-15 15:41:00,
2013-09-15 11:46:00,60.8,49.8,30.10,SW,229,0.0,0.0,67,0.00,,OVC180,0.00,VWS V14.01,2013-09-15 15:46:00,
2013-09-15 11:51:00,61.2,49.3,30.09,SW,220,0.0,1.0,65,0.00,,OVC180,0.00,VWS V14.01,2013-09-15 15:51:00,
2013-09-15 11:56:00,61.4,49.5,30.09,SW,220,0.0,0.0,65,0.00,,OVC180,0.00,VWS V14.01,2013-09-15 15:56:00,
2013-09-15 12:01:00,61.6,49.7,30.09,SW,220,0.0,0.0,65,0.00,,OVC180,0.00,VWS V14.01,2013-09-15 16:01:00,
2013-09-15 12:06:00,61.7,49.4,30.09,SW,220,0.0,2.0,64,0.00,,OVC180,0.00,VWS V14.01,2013-09-15 16:06:00,
2013-09-15 12:11:00,61.7,49.0,30.09,SW,225,4.0,6.0,63,0.00,,OVC180,0.00,VWS V14.01,2013-09-15 16:11:00,
2013-09-15 12:16:00,61.7,49.0,30.09,SW,227,2.0,2.0,63,0.00,,OVC180,0.00,VWS V14.01,2013-09-15 16:16:00,
2013-09-15 12:21:00,61.7,49.4,30.10,SW,227,0.0,1.0,64,0.00,,OVC180,0.00,VWS V14.01,2013-09-15 16:21:00,
2013-09-15 12:26:00,61.9,50.0,30.10,SW,227,0.0,1.0,65,0.00,,OVC180,0.00,VWS V14.01,2013-09-15 16:26:00,
2013-09-15 12:31:00,62.1,50.2,30.10,SW,228,2.0,4.0,65,0.00,,OVC180,0.00,VWS V14.01,2013-09-15 16:31:00,
2013-09-15 12:36:00,62.3,50.0,30.09,SW,228,0.0,1.0,64,0.00,,OVC140,0.00,VWS V14.01,2013-09-15 16:36:00,
2013-09-15 12:41:00,62.3,49.6,30.09,SW,228,1.0,2.0,63,0.00,,OVC140,0.00,VWS V14.01,2013-09-15 16:41:00,
2013-09-15 12:46:00,62.3,49.6,30.09,SW,228,0.0,2.0,63,0.00,,OVC140,0.00,VWS V14.01,2013-09-15 16:46:00,
2013-09-15 12:51:00,62.3,49.6,30.10,WSW,237,4.0,6.0,63,0.00,,OVC140,0.00,VWS V14.01,2013-09-15 16:51:00,
2013-09-15 12:56:00,62.2,49.9,30.10,SSW,210,1.0,4.0,64,0.00,,OVC140,0.00,VWS V14.01,2013-09-15 16:56:00,
2013-09-15 13:01:00,62.1,50.2,30.10,WSW,240,2.0,3.0,65,0.00,,OVC140,0.00,VWS V14.01,2013-09-15 17:01:00,
2013-09-15 13:06:00,61.9,50.4,30.09,WSW,240,0.0,0.0,66,0.00,,OVC140,0.00,VWS V14.01,2013-09-15 17:06:00,
2013-09-15 13:12:00,61.8,51.9,30.09,WSW,240,0.0,0.0,70,0.00,,OVC140,0.00,VWS V14.01,2013-09-15 17:12:00,
2013-09-15 13:17:00,61.7,51.8,30.09,WSW,240,0.0,2.0,70,0.00,,OVC140,0.00,VWS V14.01,2013-09-15 17:17:00,
2013-09-15 13:22:00,61.6,51.7,30.09,WSW,240,0.0,2.0,70,0.00,,OVC140,0.00,VWS V14.01,2013-09-15 17:22:00,
2013-09-15 13:27:00,61.6,51.7,30.09,WSW,240,1.0,1.0,70,0.00,,OVC140,0.00,VWS V14.01,2013-09-15 17:27:00,
2013-09-15 13:32:00,61.7,51.8,30.09,WSW,240,0.0,1.0,70,0.00,,OVC140,0.00,VWS V14.01,2013-09-15 17:32:00,
2013-09-15 13:37:00,61.8,52.3,30.09,WSW,240,0.0,2.0,71,0.00,,-RA,0.00,VWS V14.01,2013-09-15 17:37:00,
2013-09-15 13:42:00,61.9,51.6,30.10,WSW,240,0.0,1.0,69,0.00,,-RA,0.00,VWS V14.01,2013-09-15 17:42:00,
2013-09-15 13:47:00,62.0,52.5,30.09,WSW,240,0.0,0.0,71,0.00,,-RA,0.00,VWS V14.01,2013-09-15 17:47:00,
2013-09-15 13:52:00,62.2,52.7,30.09,WSW,240,0.0,0.0,71,0.00,,-RA,0.00,VWS V14.01,2013-09-15 17:52:00,
2013-09-15 13:57:00,62.3,52.0,30.09,WSW,239,0.0,4.0,69,0.00,,-RA,0.00,VWS V14.01,2013-09-15 17:57:00,
2013-09-15 14:02:00,62.3,51.6,30.09,WSW,238,3.0,4.0,68,0.00,,-RA,0.00,VWS V14.01,2013-09-15 18:02:00,
2013-09-15 14:07:00,62.3,52.0,30.09,WSW,238,0.0,2.0,69,0.00,,-RA,0.00,VWS V14.01,2013-09-15 18:07:00,
2013-09-15 14:12:00,62.3,52.0,30.09,WSW,238,0.0,1.0,69,0.00,,-RA,0.00,VWS V14.01,2013-09-15 18:12:00,
2013-09-15 14:17:00,62.3,52.0,30.09,WSW,238,0.0,0.0,69,0.00,,-RA,0.00,VWS V14.01,2013-09-15 18:17:00,
2013-09-15 14:22:00,62.4,52.5,30.09,WSW,238,0.0,1.0,70,0.00,,-RA,0.00,VWS V14.01,2013-09-15 18:22:00,
2013-09-15 14:27:00,62.5,51.8,30.09,WSW,237,0.0,4.0,68,0.00,,-RA,0.00,VWS V14.01,2013-09-15 18:27:00,
2013-09-15 14:32:00,62.6,52.3,30.09,WSW,237,0.0,1.0,69,0.00,,-RA,0.00,VWS V14.01,2013-09-15 18:32:00,
2013-09-15 14:37:00,62.7,52.4,30.09,SW,226,0.0,0.0,69,0.00,,-RA,0.00,VWS V14.01,2013-09-15 18:37:00,
2013-09-15 14:42:00,62.6,51.1,30.09,SW,226,0.0,5.0,66,0.00,,-RA,0.00,VWS V14.01,2013-09-15 18:42:00,
2013-09-15 14:47:00,62.6,51.9,30.09,SW,226,0.0,2.0,68,0.00,,-RA,0.00,VWS V14.01,2013-09-15 18:47:00,
2013-09-15 14:52:00,62.6,51.9,30.09,SW,226,0.0,0.0,68,0.00,,-RA,0.00,VWS V14.01,2013-09-15 18:52:00,
2013-09-15 14:57:00,62.6,52.3,30.09,SW,226,0.0,1.0,69,0.00,,-RA,0.00,VWS V14.01,2013-09-15 18:57:00,
2013-09-15 15:02:00,62.6,52.3,30.09,SW,226,0.0,0.0,69,0.00,,-RA,0.00,VWS V14.01,2013-09-15 19:02:00,
2013-09-15 15:07:00,62.8,53.3,30.08,SW,226,0.0,0.0,71,0.00,,-RA,0.00,VWS V14.01,2013-09-15 19:07:00,
2013-09-15 15:13:00,63.0,52.7,30.08,SW,226,0.0,0.0,69,0.00,,-RA,0.00,VWS V14.01,2013-09-15 19:13:00,
2013-09-15 15:18:00,63.1,52.4,30.08,SW,226,0.0,1.0,68,0.00,,-RA,0.00,VWS V14.01,2013-09-15 19:18:00,
2013-09-15 15:22:00,63.1,52.0,30.08,SW,226,0.0,1.0,67,0.00,,-RA,0.00,VWS V14.01,2013-09-15 19:22:00,
2013-09-15 15:27:00,63.0,52.3,30.07,SW,226,0.0,0.0,68,0.00,,-RA,0.00,VWS V14.01,2013-09-15 19:27:00,
2013-09-15 15:32:00,63.0,52.3,30.08,SW,226,0.0,0.0,68,0.00,,-RA,0.00,VWS V14.01,2013-09-15 19:32:00,
2013-09-15 15:37:00,63.1,53.2,30.08,SW,226,0.0,0.0,70,0.00,,-RA,0.00,VWS V14.01,2013-09-15 19:37:00,
2013-09-15 15:42:00,63.0,52.7,30.08,SW,226,0.0,0.0,69,0.00,,-RA,0.00,VWS V14.01,2013-09-15 19:42:00,
2013-09-15 15:47:00,63.0,52.3,30.07,SW,226,0.0,2.0,68,0.00,,-RA,0.00,VWS V14.01,2013-09-15 19:47:00,
2013-09-15 15:52:00,63.0,52.3,30.07,SW,226,0.0,0.0,68,0.00,,-RA,0.00,VWS V14.01,2013-09-15 19:52:00,
2013-09-15 15:58:00,63.1,53.2,30.07,SW,226,0.0,0.0,70,0.00,,-RA,0.00,VWS V14.01,2013-09-15 19:58:00,
2013-09-15 16:03:00,63.1,53.2,30.06,SW,226,0.0,0.0,70,0.00,,-RA,0.00,VWS V14.01,2013-09-15 20:03:00,
2013-09-15 16:08:00,63.1,53.2,30.06,SW,226,0.0,0.0,70,0.00,,-RA,0.00,VWS V14.01,2013-09-15 20:08:00,
2013-09-15 16:13:00,63.1,53.6,30.07,SW,226,0.0,0.0,71,0.00,,-RA,0.00,VWS V14.01,2013-09-15 20:13:00,
2013-09-15 16:18:00,63.0,53.5,30.07,SW,226,0.0,0.0,71,0.00,,-RA,0.00,VWS V14.01,2013-09-15 20:18:00,
2013-09-15 16:23:00,63.0,53.5,30.07,SW,226,0.0,0.0,71,0.00,,-RA,0.00,VWS V14.01,2013-09-15 20:23:00,
2013-09-15 16:28:00,63.0,53.5,30.07,SW,226,0.0,1.0,71,0.00,,-RA,0.00,VWS V14.01,2013-09-15 20:28:00,
2013-09-15 16:33:00,63.0,53.8,30.07,SW,226,0.0,0.0,72,0.00,,-RA,0.00,VWS V14.01,2013-09-15 20:33:00,
2013-09-15 16:38:00,63.0,53.8,30.08,SW,226,0.0,0.0,72,0.00,,-RA,0.00,VWS V14.01,2013-09-15 20:38:00,
2013-09-15 16:43:00,62.9,53.0,30.08,North,350,0.0,8.0,70,0.00,,-RA,0.00,VWS V14.01,2013-09-15 20:43:00,
2013-09-15 16:48:00,62.6,53.1,30.07,NNE,15,0.0,1.0,71,0.00,,-RA,0.00,VWS V14.01,2013-09-15 20:48:00,
2013-09-15 16:53:00,62.3,53.2,30.08,NNE,15,0.0,0.0,72,0.00,,-RA,0.00,VWS V14.01,2013-09-15 20:53:00,
2013-09-15 16:58:00,62.1,53.7,30.07,NNE,15,0.0,0.0,74,0.00,,-RA,0.00,VWS V14.01,2013-09-15 20:58:00,
2013-09-15 17:03:00,61.9,53.9,30.08,NNE,15,0.0,0.0,75,0.00,,-RA,0.00,VWS V14.01,2013-09-15 21:03:00,
2013-09-15 17:08:00,61.7,54.4,30.08,NNE,15,0.0,0.0,77,0.00,,-RA,0.00,VWS V14.01,2013-09-15 21:08:00,
2013-09-15 17:13:00,61.4,54.5,30.09,North,355,0.0,0.0,78,0.00,,-RA,0.00,VWS V14.01,2013-09-15 21:13:00,
2013-09-15 17:18:00,61.1,54.9,30.09,North,5,0.0,1.0,80,0.00,,-RA,0.00,VWS V14.01,2013-09-15 21:18:00,
2013-09-15 17:23:00,60.9,54.7,30.09,NNW,346,0.0,4.0,80,0.00,,-RA,0.00,VWS V14.01,2013-09-15 21:23:00,
2013-09-15 17:28:00,60.5,54.7,30.09,North,11,2.0,3.0,81,0.01,,-RA,0.01,VWS V14.01,2013-09-15 21:28:00,
2013-09-15 17:33:00,60.2,54.4,30.09,North,11,0.0,0.0,81,0.01,,-RA,0.01,VWS V14.01,2013-09-15 21:33:00,
2013-09-15 17:38:00,60.1,54.6,30.09,North,11,0.0,0.0,82,0.01,,-RA,0.01,VWS V14.01,2013-09-15 21:38:00,
2013-09-15 17:43:00,59.9,54.7,30.10,North,11,0.0,0.0,83,0.01,,-RA,0.01,VWS V14.01,2013-09-15 21:43:00,
2013-09-15 17:48:00,59.7,54.9,30.09,North,11,0.0,0.0,84,0.01,,-RA,0.01,VWS V14.01,2013-09-15 21:48:00,
2013-09-15 17:53:00,59.4,54.6,30.09,North,11,0.0,1.0,84,0.01,,-RA,0.01,VWS V14.01,2013-09-15 21:53:00,
2013-09-15 17:59:00,59.1,54.3,30.09,North,9,0.0,2.0,84,0.01,,-RA,0.01,VWS V14.01,2013-09-15 21:59:00,
2013-09-15 18:04:00,58.9,54.1,30.10,North,355,0.0,1.0,84,0.01,,-RA,0.01,VWS V14.01,2013-09-15 22:04:00,
2013-09-15 18:09:00,58.7,54.2,30.10,North,355,0.0,1.0,85,0.01,,-RA,0.01,VWS V14.01,2013-09-15 22:09:00,
2013-09-15 18:14:00,58.5,54.0,30.10,North,355,0.0,1.0,85,0.01,,-RA,0.01,VWS V14.01,2013-09-15 22:14:00,
2013-09-15 18:19:00,58.2,53.7,30.10,North,5,0.0,3.0,85,0.01,,-RA,0.01,VWS V14.01,2013-09-15 22:19:00,
2013-09-15 18:24:00,58.1,53.9,30.11,North,5,0.0,0.0,86,0.02,,-RA,0.02,VWS V14.01,2013-09-15 22:24:00,
2013-09-15 18:29:00,58.0,53.8,30.11,North,5,0.0,0.0,86,0.02,,-RA,0.02,VWS V14.01,2013-09-15 22:29:00,
2013-09-15 18:34:00,57.8,54.0,30.11,North,5,0.0,0.0,87,0.01,,-RA,0.02,VWS V14.01,2013-09-15 22:34:00,
2013-09-15 18:39:00,57.8,54.3,30.11,North,5,0.0,0.0,88,0.01,,-RA,0.02,VWS V14.01,2013-09-15 22:39:00,
2013-09-15 18:44:00,57.7,54.2,30.12,North,5,0.0,0.0,88,0.02,,-RA,0.03,VWS V14.01,2013-09-15 22:44:00,
2013-09-15 18:49:00,57.5,54.0,30.12,North,5,0.0,0.0,88,0.02,,-RA,0.03,VWS V14.01,2013-09-15 22:49:00,
2013-09-15 18:54:00,57.4,53.9,30.12,North,5,0.0,0.0,88,0.02,,-RA,0.03,VWS V14.01,2013-09-15 22:54:00,
2013-09-15 18:59:00,57.2,53.7,30.11,North,5,0.0,0.0,88,0.02,,-RA,0.03,VWS V14.01,2013-09-15 22:59:00,
2013-09-15 19:04:00,56.9,53.4,30.11,North,5,0.0,0.0,88,0.02,,-RA,0.03,VWS V14.01,2013-09-15 23:04:00,
2013-09-15 19:09:00,56.8,53.3,30.11,North,5,0.0,0.0,88,0.02,,-RA,0.03,VWS V14.01,2013-09-15 23:09:00,
2013-09-15 19:14:00,56.7,53.5,30.11,North,5,0.0,0.0,89,0.02,,-RA,0.03,VWS V14.01,2013-09-15 23:14:00,
2013-09-15 19:19:00,56.6,53.4,30.11,North,5,0.0,0.0,89,0.02,,-RA,0.03,VWS V14.01,2013-09-15 23:19:00,
2013-09-15 19:24:00,56.6,53.7,30.11,North,5,0.0,0.0,90,0.02,,-RA,0.03,VWS V14.01,2013-09-15 23:24:00,
2013-09-15 19:29:00,56.5,53.6,30.11,North,5,0.0,0.0,90,0.01,,-RA,0.03,VWS V14.01,2013-09-15 23:29:00,
2013-09-15 19:34:00,56.4,53.5,30.11,North,5,0.0,0.0,90,0.01,,-RA,0.03,VWS V14.01,2013-09-15 23:34:00,
2013-09-15 19:39:00,56.2,53.3,30.11,North,5,0.0,0.0,90,0.01,,OVC060,0.03,VWS V14.01,2013-09-15 23:39:00,
2013-09-15 19:44:00,56.1,53.2,30.11,North,5,0.0,0.0,90,0.00,,OVC060,0.03,VWS V14.01,2013-09-15 23:44:00,
2013-09-15 19:49:00,56.1,53.5,30.11,North,5,0.0,0.0,91,0.00,,OVC060,0.03,VWS V14.01,2013-09-15 23:49:00,
2013-09-15 19:54:00,56.1,53.5,30.11,North,5,0.0,0.0,91,0.01,,OVC060,0.04,VWS V14.01,2013-09-15 23:54:00,
2013-09-15 19:59:00,56.2,53.9,30.11,North,5,0.0,0.0,92,0.01,,OVC060,0.04,VWS V14.01,2013-09-15 23:59:00,
2013-09-15 20:04:00,56.2,53.9,30.11,North,5,0.0,0.0,92,0.01,,OVC060,0.04,VWS V14.01,2013-09-16 00:04:00,
2013-09-15 20:10:00,56.2,53.9,30.12,North,5,0.0,0.0,92,0.01,,-RA,0.04,VWS V14.01,2013-09-16 00:10:00,
2013-09-15 20:15:00,56.2,53.9,30.12,North,5,0.0,0.0,92,0.01,,-RA,0.04,VWS V14.01,2013-09-16 00:15:00,
2013-09-15 20:20:00,56.1,53.8,30.12,North,5,0.0,0.0,92,0.01,,-RA,0.04,VWS V14.01,2013-09-16 00:20:00,
2013-09-15 20:25:00,56.0,53.7,30.12,North,5,0.0,0.0,92,0.01,,-RA,0.04,VWS V14.01,2013-09-16 00:25:00,
2013-09-15 20:30:00,56.0,53.7,30.12,North,5,0.0,0.0,92,0.02,,-RA,0.05,VWS V14.01,2013-09-16 00:30:00,
2013-09-15 20:35:00,56.0,54.0,30.12,North,5,0.0,0.0,93,0.02,,-RA,0.05,VWS V14.01,2013-09-16 00:35:00,
2013-09-15 20:40:00,56.1,54.1,30.12,North,5,0.0,0.0,93,0.02,,-RA,0.05,VWS V14.01,2013-09-16 00:40:00,
2013-09-15 20:45:00,56.1,54.1,30.12,North,5,0.0,0.0,93,0.02,,-RA,0.05,VWS V14.01,2013-09-16 00:45:00,
2013-09-15 20:50:00,56.2,54.2,30.12,North,5,0.0,0.0,93,0.02,,-RA,0.05,VWS V14.01,2013-09-16 00:50:00,
2013-09-15 20:55:00,56.1,54.1,30.12,North,5,0.0,0.0,93,0.02,,-RA,0.05,VWS V14.01,2013-09-16 00:55:00,
2013-09-15 21:00:00,56.2,54.2,30.12,North,5,0.0,0.0,93,0.01,,-RA,0.05,VWS V14.01,2013-09-16 01:00:00,
2013-09-15 21:05:00,56.2,54.2,30.12,North,5,0.0,0.0,93,0.01,,-RA,0.05,VWS V14.01,2013-09-16 01:05:00,
2013-09-15 21:10:00,56.2,54.2,30.12,North,5,0.0,0.0,93,0.01,,-RA,0.05,VWS V14.01,2013-09-16 01:10:00,
2013-09-15 21:15:00,56.2,54.2,30.12,North,5,0.0,0.0,93,0.01,,-RA,0.05,VWS V14.01,2013-09-16 01:15:00,
2013-09-15 21:20:00,56.2,54.2,30.12,North,5,0.0,0.0,93,0.01,,-RA,0.05,VWS V14.01,2013-09-16 01:20:00,
2013-09-15 21:25:00,56.1,54.1,30.12,North,5,0.0,0.0,93,0.01,,-RA,0.05,VWS V14.01,2013-09-16 01:25:00,
2013-09-15 21:30:00,56.1,54.1,30.12,North,5,0.0,0.0,93,0.01,,-RA,0.05,VWS V14.01,2013-09-16 01:30:00,
2013-09-15 21:35:00,56.0,54.3,30.12,North,5,0.0,0.0,94,0.00,,OVC090,0.05,VWS V14.01,2013-09-16 01:35:00,
2013-09-15 21:40:00,56.0,54.3,30.12,North,5,0.0,0.0,94,0.00,,OVC090,0.05,VWS V14.01,2013-09-16 01:40:00,
2013-09-15 21:45:00,55.9,53.9,30.12,North,5,0.0,0.0,93,0.00,,OVC090,0.05,VWS V14.01,2013-09-16 01:45:00,
2013-09-15 21:50:00,55.7,53.7,30.12,North,5,0.0,0.0,93,0.00,,OVC090,0.05,VWS V14.01,2013-09-16 01:50:00,
2013-09-15 21:55:00,55.5,53.5,30.12,North,5,0.0,0.0,93,0.00,,OVC090,0.05,VWS V14.01,2013-09-16 01:55:00,
2013-09-15 22:00:00,55.5,53.8,30.12,North,5,0.0,0.0,94,0.00,,OVC090,0.05,VWS V14.01,2013-09-16 02:00:00,
2013-09-15 22:05:00,55.5,53.8,30.12,North,5,0.0,0.0,94,0.00,,OVC090,0.05,VWS V14.01,2013-09-16 02:05:00,
2013-09-15 22:10:00,55.6,53.9,30.12,North,5,0.0,0.0,94,0.00,,OVC090,0.05,VWS V14.01,2013-09-16 02:10:00,
2013-09-15 22:15:00,55.6,53.9,30.12,North,5,0.0,0.0,94,0.00,,OVC090,0.05,VWS V14.01,2013-09-16 02:15:00,
2013-09-15 22:21:00,55.6,53.9,30.12,North,5,0.0,0.0,94,0.00,,OVC090,0.05,VWS V14.01,2013-09-16 02:21:00,
2013-09-15 22:26:00,55.7,54.0,30.12,North,5,0.0,0.0,94,0.00,,OVC090,0.05,VWS V14.01,2013-09-16 02:26:00,
2013-09-15 22:31:00,55.7,54.0,30.12,North,5,0.0,0.0,94,0.00,,OVC090,0.05,VWS V14.01,2013-09-16 02:31:00,
2013-09-15 22:36:00,55.8,54.1,30.11,North,5,0.0,0.0,94,0.00,,OVC090,0.05,VWS V14.01,2013-09-16 02:36:00,
2013-09-15 22:41:00,55.8,54.1,30.12,North,5,0.0,0.0,94,0.00,,OVC090,0.05,VWS V14.01,2013-09-16 02:41:00,
2013-09-15 22:46:00,55.9,54.2,30.12,North,5,0.0,0.0,94,0.00,,OVC090,0.05,VWS V14.01,2013-09-16 02:46:00,
2013-09-15 22:51:00,55.9,54.2,30.12,North,5,0.0,0.0,94,0.00,,OVC090,0.05,VWS V14.01,2013-09-16 02:51:00,
2013-09-15 22:56:00,55.9,54.2,30.12,North,5,0.0,0.0,94,0.00,,OVC090,0.05,VWS V14.01,2013-09-16 02:56:00,
2013-09-15 23:01:00,55.9,54.2,30.12,North,5,0.0,0.0,94,0.00,,OVC090,0.05,VWS V14.01,2013-09-16 03:01:00,
2013-09-15 23:06:00,55.9,54.2,30.12,North,5,0.0,0.0,94,0.00,,OVC090,0.05,VWS V14.01,2013-09-16 03:06:00,
2013-09-15 23:11:00,55.9,54.2,30.13,North,5,0.0,0.0,94,0.00,,OVC090,0.05,VWS V14.01,2013-09-16 03:11:00,
2013-09-15 23:16:00,55.9,54.2,30.13,North,5,0.0,0.0,94,0.00,,OVC090,0.05,VWS V14.01,2013-09-16 03:16:00,
2013-09-15 23:21:00,55.8,54.1,30.13,North,5,0.0,0.0,94,0.00,,OVC090,0.05,VWS V14.01,2013-09-16 03:21:00,
2013-09-15 23:26:00,55.8,54.1,30.13,North,5,0.0,0.0,94,0.00,,OVC090,0.05,VWS V14.01,2013-09-16 03:26:00,
2013-09-15 23:31:00,55.7,54.0,30.13,North,5,0.0,0.0,94,0.00,,OVC090,0.05,VWS V14.01,2013-09-16 03:31:00,
2013-09-15 23:36:00,55.7,54.0,30.13,North,5,0.0,0.0,94,0.00,,OVC090,0.05,VWS V14.01,2013-09-16 03:36:00,
2013-09-15 23:41:00,55.7,54.3,30.13,North,5,0.0,0.0,95,0.00,,OVC090,0.05,VWS V14.01,2013-09-16 03:41:00,
2013-09-15 23:46:00,55.7,54.3,30.13,North,5,0.0,0.0,95,0.00,,OVC090,0.05,VWS V14.01,2013-09-16 03:46:00,
2013-09-15 23:51:00,55.7,54.3,30.13,North,5,0.0,0.0,95,0.00,,OVC090,0.05,VWS V14.01,2013-09-16 03:51:00,
2013-09-15 23:56:00,55.7,54.3,30.13,North,5,0.0,0.0,95,0.00,,OVC090,0.05,VWS V14.01,2013-09-16 03:56:00,